www.pogodaiklimat.ru

Погода и климат >> Архив погоды >> Австралия >> Adelaide


АРХИВ ПОГОДЫ в Adelaide

Время (UTC), дата Ветер
(напр.,м/с)
 
Видим.   Явления Облачность Т
(С)
Тd
(С)
f
(%)
Тe
(С)
Тes
(С)
Комфортность P
(гПа)
Po
(гПа)
Тmin
(С)
Tmax
(С)
R
(мм)
R24
(мм)
S
(см)
08 19.09 ЮЗ 6 н/о н/о +13.1 +8.0 71 +11 +11 по сезону 1019.5 1018.5
07 19.09 З 4 н/о н/о +13.1 +7.1 67 +11 +11 по сезону 1019.1 1018.1
09 19.09 Ю 4 н/о н/о +12.2 +9.4 83 +10 +10 прохладно 1020.0 1019.0
10 19.09 ЮЗ 7 н/о н/о +11.6 +9.8 89 +8 +8 по сезону 1020.6 1019.6
11 19.09 З 4 н/о н/о +10.9 +7.3 78 +9 +9 по сезону 1021.0 1020.0
12 19.09 штиль 0 н/о н/о +10.6 +9.0 90 +10 +10 по сезону 1021.2 1020.2
14 19.09 В 2 н/о н/о +9.3 +8.5 95 +7 +7 по сезону 1021.3 1020.3
13 19.09 СВ 2 н/о н/о +9.6 +8.4 92 +8 +8 по сезону 1021.3 1020.3
15 19.09 СВ 3 н/о н/о +9.9 +9.3 96 +8 +8 прохладно 1021.4 1020.4
16 19.09 штиль 0 н/о н/о +10.4 +9.6 95 +10 +10 тепло 1021.3 1020.3
17 19.09 З 3 н/о н/о +11.8 +10.2 90 +10 +10 по сезону 1020.9 1019.9
18 19.09 З 4 н/о н/о +11.6 +9.8 89 +9 +9 по сезону 1021.0 1020.0
20 19.09 ЮЗ 2 н/о н/о +11.5 +8.9 84 +11 +11 тепло 1021.8 1020.8
19 19.09 штиль 0 н/о н/о +11.6 +9.2 85 +11 +11 по сезону 1021.3 1020.3
21 19.09 З 5 н/о н/о +11.9 +9.3 84 +10 +10 по сезону 1022.7 1021.7
22 19.09 З 3 н/о н/о +12.5 +10.4 87 +11 +11 по сезону 1023.5 1022.5
23 19.09 З 4 н/о н/о +13.8 +9.9 77 +12 +12 по сезону 1024.0 1023.0
00 20.09 З 5 н/о н/о +13.6 +9.5 76 +12 +12 прохладно 1024.8 1023.8
02 20.09 ЮЗ 3 н/о н/о +14.1 +9.6 74 +13 +13 по сезону 1025.4 1024.4
01 20.09 З 5 н/о н/о +14.2 +9.9 75 +13 +13 по сезону 1025.4 1024.4
03 20.09 ЮЗ 4 н/о н/о +13.7 +9.4 75 +12 +12 прохладно 1025.2 1024.2
04 20.09 Ю 4 н/о н/о +14.5 +9.0 70 +13 +13 по сезону 1024.8 1023.8
05 20.09 ЮЗ 4 н/о н/о +14.6 +8.6 67 +14 +14 по сезону 1024.6 1023.6
06 20.09 ЮЗ 3 н/о н/о +14.4 +8.6 68 +14 +14 прохладно 1024.6 1023.6
08 20.09 ЮЗ 3 н/о н/о +13.8 +9.3 74 +13 +13 по сезону 1025.3 1024.3
07 20.09 ЮЗ 4 н/о н/о +14.3 +8.7 69 +13 +13 по сезону 1024.8 1023.8
09 20.09 З 3 н/о н/о +13.5 +9.6 77 +13 +13 по сезону 1025.8 1024.8
10 20.09 З 2 н/о н/о +13.5 +10.0 79 +13 +13 тепло 1026.4 1025.4
11 20.09 З 3 н/о н/о +13.5 +9.6 77 +13 +13 тепло 1026.9 1025.9
12 20.09 З 3 н/о н/о +13.6 +9.0 74 +13 +13 по сезону 1027.2 1026.2
14 20.09 СЗ 3 н/о н/о +13.4 +8.4 72 +12 +12 тепло 1027.2 1026.2
13 20.09 З 3 н/о н/о +13.5 +8.0 69 +12 +12 тепло 1027.2 1026.2
15 20.09 ЮЗ 2 н/о н/о +13.0 +7.7 70 +13 +13 тепло 1027.2 1026.2
16 20.09 З 1 н/о н/о +12.9 +8.5 75 +14 +14 тепло 1027.0 1026.0
17 20.09 ЮЗ 1 н/о н/о +12.9 +8.2 73 +14 +14 тепло 1026.4 1025.4
18 20.09 ЮЗ 1 н/о н/о +12.7 +8.2 74 +14 +14 тепло 1026.3 1025.3
20 20.09 З 3 н/о н/о +13.1 +8.7 75 +12 +12 тепло 1027.1 1026.1
19 20.09 З 3 н/о н/о +12.8 +8.8 77 +11 +11 по сезону 1026.9 1025.9
21 20.09 С 4 н/о н/о +12.2 +9.4 83 +10 +10 по сезону 1027.9 1026.9
22 20.09 С 2 н/о н/о +11.9 +9.1 83 +11 +11 по сезону 1028.4 1027.4
23 20.09 С 3 н/о н/о +12.8 +9.0 78 +12 +12 по сезону 1029.1 1028.1
00 21.09 СЗ 3 н/о н/о +13.9 +9.4 74 +13 +13 по сезону 1029.2 1028.2
02 21.09 З 5 н/о н/о +15.1 +9.9 71 +14 +14 по сезону 1029.1 1028.1
01 21.09 З 4 н/о н/о +14.5 +9.6 72 +13 +13 по сезону 1029.2 1028.2
03 21.09 ЮЗ 4 н/о н/о +14.6 +8.4 66 +14 +14 по сезону 1028.2 1027.2
04 21.09 З 3 н/о н/о +15.5 +8.6 63 +15 +15 по сезону 1027.5 1026.5
05 21.09 СЗ 3 н/о н/о +17.6 +8.6 56 +18 +18 тепло 1026.6 1025.6
06 21.09 ЮЗ 3 н/о н/о +18.0 +8.4 53 +18 +18 тепло 1025.8 1024.8
08 21.09 ЮЗ 3 н/о н/о +17.5 +8.7 56 +18 +18 тепло 1026.0 1025.0
07 21.09 ЮЗ 3 н/о н/о +18.3 +8.3 52 +19 +19 тепло 1025.6 1024.6
09 21.09 Ю 2 н/о н/о +15.8 +9.2 65 +16 +16 тепло 1026.3 1025.3
10 21.09 Ю 2 н/о н/о +14.7 +9.2 70 +15 +15 тепло 1026.6 1025.6
11 21.09 штиль 0 н/о н/о +12.9 +9.1 78 +12 +12 по сезону 1027.0 1026.0
12 21.09 Ю 3 н/о н/о +12.3 +9.5 83 +11 +11 по сезону 1027.5 1026.5
14 21.09 В 2 н/о н/о +10.6 +8.5 87 +10 +10 тепло 1027.4 1026.4
13 21.09 штиль 0 н/о н/о +12.1 +8.9 81 +12 +12 тепло 1027.5 1026.5
15 21.09 В 2 н/о н/о +9.8 +8.1 89 +8 +8 прохладно 1027.0 1026.0
16 21.09 СВ 1 н/о н/о +9.4 +7.3 87 +10 +10 тепло 1026.3 1025.3
17 21.09 В 2 н/о н/о +9.0 +7.3 89 +7 +7 по сезону 1025.7 1024.7
18 21.09 С 3 н/о н/о +10.5 +6.9 78 +9 +9 по сезону 1025.7 1024.7
20 21.09 штиль 0 н/о н/о +8.0 +6.7 91 +7 +7 по сезону 1026.3 1025.3
19 21.09 В 2 н/о н/о +8.5 +7.0 90 +7 +7 прохладно 1025.7 1024.7
21 21.09 штиль 0 н/о н/о +7.7 +6.1 90 +7 +7 холодно 1027.2 1026.2
22 21.09 В 2 н/о н/о +11.7 +8.0 78 +11 +11 по сезону 1027.8 1026.8
23 21.09 В 2 н/о н/о +16.0 +8.2 60 +16 +16 тепло 1028.2 1027.2
00 22.09 С 3 н/о н/о +16.6 +8.5 59 +17 +17 тепло 1028.5 1027.5
02 22.09 З 4 н/о н/о +17.4 +11.1 66 +17 +17 тепло 1028.1 1027.1
01 22.09 З 4 н/о н/о +16.5 +10.0 65 +16 +16 по сезону 1028.2 1027.2
03 22.09 ЮЗ 4 н/о н/о +18.0 +11.3 65 +18 +18 тепло 1027.8 1026.8
04 22.09 ЮЗ 4 н/о н/о +19.3 +8.7 50 +20 +20 тепло 1027.2 1026.2
05 22.09 Ю 5 н/о н/о +19.6 +7.9 47 +20 +20 тепло 1026.9 1025.9
06 22.09 ЮЗ 7 н/о н/о +18.3 +10.0 58 +18 +18 тепло 1026.8 1025.8
08 22.09 Ю 5 н/о н/о +16.9 +8.0 56 +16 +16 тепло 1027.3 1026.3
07 22.09 ЮЗ 7 н/о н/о +17.8 +8.2 53 +17 +17 тепло 1026.8 1025.8
09 22.09 ЮЗ 4 н/о н/о +15.4 +11.1 76 +15 +15 по сезону 1027.9 1026.9
10 22.09 Ю 3 н/о н/о +14.7 +11.5 81 +14 +14 тепло 1028.5 1027.5
11 22.09 ЮЗ 3 н/о н/о +14.2 +12.0 87 +13 +13 тепло 1029.1 1028.1
12 22.09 Ю 2 н/о н/о +13.3 +10.2 81 +13 +13 по сезону 1029.4 1028.4
14 22.09 ЮЗ 3 н/о н/о +12.6 +10.3 86 +11 +11 тепло 1029.5 1028.5
13 22.09 Ю 2 н/о н/о +13.3 +8.9 75 +13 +13 тепло 1029.5 1028.5
15 22.09 Ю 3 н/о н/о +11.8 +8.8 82 +10 +10 по сезону 1029.6 1028.6
16 22.09 Ю 3 н/о н/о +10.9 +8.2 83 +9 +9 тепло 1029.3 1028.3
17 22.09 СВ 2 н/о н/о +9.1 +7.2 88 +7 +7 по сезону 1029.4 1028.4
18 22.09 С 2 н/о н/о +9.0 +7.3 89 +8 +8 по сезону 1029.6 1028.6
20 22.09 З 2 н/о н/о +7.6 +6.9 95 +6 +6 прохладно 1030.4 1029.4
19 22.09 штиль 0 н/о н/о +8.6 +7.5 93 +8 +8 прохладно 1030.0 1029.0
21 22.09 Ю 2 н/о н/о +9.1 +8.5 96 +8 +8 прохладно 1031.2 1030.2
22 22.09 ЮВ 3 н/о н/о +13.1 +9.5 79 +12 +12 по сезону 1031.8 1030.8
23 22.09 Ю 4 н/о н/о +15.2 +9.3 68 +14 +14 по сезону 1032.3 1031.3
00 23.09 ЮВ 5 н/о н/о +15.9 +8.3 61 +15 +15 по сезону 1032.3 1031.3
02 23.09 Ю 6 н/о н/о +18.0 +7.4 50 +18 +18 тепло 1031.8 1030.8
01 23.09 ЮВ 5 н/о н/о +17.1 +7.9 55 +17 +17 тепло 1032.1 1031.1
03 23.09 Ю 4 н/о н/о +18.9 +7.9 49 +19 +19 тепло 1030.8 1029.8
04 23.09 ЮВ 4 н/о н/о +19.1 +7.7 48 +20 +20 тепло 1030.0 1029.0
05 23.09 Ю 5 н/о н/о +19.4 +6.8 44 +20 +20 тепло 1029.6 1028.6
06 23.09 Ю 6 н/о н/о +19.2 +6.5 44 +19 +19 тепло 1029.7 1028.7
08 23.09 ЮВ 7 н/о н/о +15.3 +4.8 49 +14 +14 по сезону 1030.4 1029.4
07 23.09 Ю 6 н/о н/о +17.6 +5.3 44 +17 +17 тепло 1029.8 1028.8
09 23.09 ЮВ 7 н/о н/о +13.1 +5.0 58 +11 +11 прохладно 1031.2 1030.2
10 23.09 Ю 4 н/о н/о +12.2 +5.5 64 +11 +11 тепло 1031.8 1030.8
11 23.09 Ю 5 н/о н/о +11.6 +6.0 68 +9 +9 по сезону 1032.3 1031.3
12 23.09 ЮВ 5 н/о н/о +11.2 +6.0 70 +9 +9 прохладно 1032.3 1031.3
14 23.09 ЮВ 5 н/о н/о +10.9 +5.4 69 +8 +8 по сезону 1032.1 1031.1
13 23.09 Ю 6 н/о н/о +11.0 +6.0 71 +8 +8 по сезону 1032.2 1031.2
15 23.09 ЮВ 6 н/о н/о +10.5 +4.1 65 +8 +8 прохладно 1031.9 1030.9
16 23.09 В 5 н/о н/о +9.7 +2.0 59 +7 +7 по сезону 1031.8 1030.8
17 23.09 В 4 н/о н/о +9.1 +1.5 59 +7 +7 по сезону 1031.4 1030.4
18 23.09 В 5 н/о н/о +8.6 +1.5 61 +6 +6 прохладно 1031.4 1030.4
20 23.09 ЮВ 3 н/о н/о +7.1 +1.3 67 +5 +5 прохладно 1031.7 1030.7
19 23.09 В 4 н/о н/о +8.1 +1.4 63 +5 +5 холодно 1031.3 1030.3
21 23.09 В 2 н/о н/о +7.1 +1.6 68 +5 +5 холодно 1031.8 1030.8
22 23.09 ЮВ 2 н/о н/о +10.3 +1.6 55 +10 +10 прохладно 1032.2 1031.2
23 23.09 В 3 н/о н/о +11.5 +1.1 49 +10 +10 прохладно 1032.7 1031.7
00 24.09 СВ 3 н/о н/о +12.6 +0.8 44 +11 +11 прохладно 1032.8 1031.8
02 24.09 В 3 н/о н/о +15.0 +0.6 37 +15 +15 по сезону 1031.2 1030.2
01 24.09 СВ 3 н/о н/о +14.0 +0.7 40 +13 +13 прохладно 1032.1 1031.1
03 24.09 В 4 н/о н/о +16.6 +1.2 35 +16 +16 по сезону 1030.4 1029.4
04 24.09 ЮВ 4 н/о н/о +17.0 -0.5 30 +17 +17 по сезону 1029.6 1028.6
05 24.09 ЮВ 6 н/о н/о +17.2 +0.2 32 +16 +16 по сезону 1028.6 1027.6
06 24.09 ЮВ 5 н/о н/о +17.1 +1.1 34 +17 +17 по сезону 1028.1 1027.1
08 24.09 ЮВ 7 н/о н/о +14.1 +2.5 45 +12 +12 по сезону 1028.4 1027.4
07 24.09 ЮВ 7 н/о н/о +16.1 +1.4 37 +15 +15 по сезону 1028.0 1027.0
09 24.09 Ю 7 н/о н/о +12.0 +3.3 55 +9 +9 холодно 1029.0 1028.0
10 24.09 ЮВ 7 н/о н/о +10.9 +3.6 61 +8 +8 по сезону 1029.5 1028.5
11 24.09 Ю 4 н/о н/о +10.4 +4.3 66 +8 +8 прохладно 1029.6 1028.6
12 24.09 ЮВ 4 н/о н/о +9.6 +4.9 72 +7 +7 холодно 1029.6 1028.6
14 24.09 Ю 5 н/о н/о +9.4 +5.1 74 +6 +6 по сезону 1029.0 1028.0
13 24.09 Ю 6 н/о н/о +9.8 +5.1 73 +7 +7 по сезону 1029.3 1028.3
15 24.09 ЮВ 3 н/о н/о +9.3 +4.5 72 +7 +7 прохладно 1029.0 1028.0
16 24.09 ЮВ 4 н/о н/о +9.3 +4.0 69 +7 +7 по сезону 1028.9 1027.9
17 24.09 ЮВ 5 н/о н/о +8.8 +3.1 67 +6 +6 по сезону 1028.4 1027.4
18 24.09 ЮВ 4 н/о н/о +7.9 +2.3 68 +5 +5 холодно 1028.0 1027.0
20 24.09 З 2 н/о н/о +5.8 +2.6 80 +3 +3 холодно 1027.6 1026.6
19 24.09 штиль 0 н/о н/о +6.6 +2.4 75 +6 +6 холодно 1027.5 1026.5
21 24.09 штиль 0 н/о н/о +6.1 +2.1 76 +5 +5 очень
холодно
1028.2 1027.2
22 24.09 В 2 н/о н/о +9.7 +3.4 65 +8 +8 холодно 1028.6 1027.6
23 24.09 З 2 н/о н/о +11.8 +4.2 60 +11 +11 прохладно 1028.8 1027.8
00 25.09 З 3 н/о н/о +12.3 +4.0 57 +11 +11 прохладно 1028.6 1027.6
02 25.09 ЮЗ 4 н/о н/о +14.3 +3.1 47 +13 +13 по сезону 1027.2 1026.2
01 25.09 З 4 н/о н/о +13.6 +4.1 53 +12 +12 прохладно 1028.2 1027.2
03 25.09 З 6 н/о н/о +15.8 +4.9 48 +15 +15 по сезону 1026.4 1025.4
04 25.09 З 6 н/о н/о +16.7 +5.4 47 +16 +16 по сезону 1025.3 1024.3
05 25.09 ЮЗ 8 н/о н/о +15.9 +7.7 58 +14 +14 прохладно 1024.4 1023.4
06 25.09 З 7 н/о н/о +16.5 +8.2 58 +15 +15 прохладно 1023.6 1022.6
08 25.09 ЮВ 5 н/о н/о +17.3 +0.5 32 +17 +17 тепло 1023.3 1022.3
07 25.09 СЗ 2 н/о н/о +18.7 +3.5 36 +19 +19 тепло 1023.2 1022.2
09 25.09 ЮВ 5 н/о н/о +14.5 +1.9 42 +13 +13 по сезону 1023.6 1022.6
10 25.09 ЮВ 4 н/о н/о +12.6 +3.9 55 +11 +11 по сезону 1024.1 1023.1
11 25.09 ЮВ 3 н/о н/о +11.4 +4.2 61 +10 +10 по сезону 1024.6 1023.6
12 25.09 ЮВ 4 н/о н/о +10.7 +4.7 66 +9 +9 прохладно 1024.5 1023.5
14 25.09 ЮВ 3 н/о н/о +10.7 +3.9 63 +9 +9 по сезону 1023.6 1022.6
13 25.09 ЮВ 4 н/о н/о +10.8 +4.8 66 +9 +9 по сезону 1024.0 1023.0
15 25.09 В 3 н/о н/о +10.2 +3.8 64 +9 +9 по сезону 1022.7 1021.7
16 25.09 штиль 0 н/о н/о +9.6 +3.9 68 +9 +9 тепло 1022.2 1021.2
17 25.09 В 4 н/о н/о +9.9 +3.4 64 +7 +7 по сезону 1021.3 1020.3
18 25.09 СВ 2 н/о н/о +8.4 +3.5 71 +7 +7 прохладно 1020.9 1019.9
20 25.09 С 1 н/о н/о +10.1 +2.3 58 +10 +10 по сезону 1021.3 1020.3
19 25.09 С 3 н/о н/о +10.7 +2.2 56 +9 +9 по сезону 1021.0 1020.0
21 25.09 В 2 н/о н/о +8.1 +3.1 71 +6 +6 холодно 1021.0 1020.0
22 25.09 СВ 4 н/о н/о +13.3 +1.7 45 +12 +12 по сезону 1020.8 1019.8
23 25.09 СВ 7 н/о н/о +15.1 +1.2 39 +13 +13 по сезону 1020.4 1019.4
00 26.09 СВ 6 н/о н/о +18.9 +1.2 31 +19 +19 тепло 1020.3 1019.3
02 26.09 С 6 н/о н/о +21.4 +0.2 24 +21 +21 комфорт 1019.0 1018.0
01 26.09 С 5 н/о н/о +20.6 -1.1 23 +20 +20 тепло 1019.8 1018.8
03 26.09 СЗ 4 н/о н/о +22.5 +2.0 26 +22 +22 комфорт 1018.0 1017.0
04 26.09 СЗ 6 н/о н/о +23.4 -1.6 19 +22 +22 комфорт 1017.1 1016.1
05 26.09 СЗ 4 н/о н/о +23.7 -4.1 15 +22 +22 комфорт 1016.3 1015.3
06 26.09 СЗ 5 н/о н/о +24.3 -6.2 13 +22 +22 комфорт 1015.8 1014.8

 

Местоположение метеостанции Adelaide (Южная Австралия, Австралия): широта -34.95 долгота 138.53 высота над уровнем моря 8 м.

В архиве по умолчанию представлена погода в Adelaide за последнюю неделю. Архивные данные за месяц целиком и за предыдущие месяцы, начиная с января 2011 года, Вы можете получить, выбрав интересующий диапазон дат из раскрывающегося списка и нажав кнопку "Ввод!".


*Определитесь, кто Вы:
робот инопланетянин человек

Внимание! Время в таблицах - всемирное. Для получения местного времени необходимо прибавить поправку, которая в Adelaide равна 9.5 ч.

Смотрите также архив погоды в соседних городах и на ближайших метеорологических станциях:

Погода в Adelaide (Kent Town) (Южная Австралия, Австралия) (9 км)
Погода в Mount Lofty (Южная Австралия, Австралия) (16 км)
Погода в Parafield Airport (Южная Австралия, Австралия) (21 км)
Погода в Noarlunga (Южная Австралия, Австралия) (25 км)
Погода в Kuitpo Forest Reserve (Южная Австралия, Австралия) (28 км)
Погода в Edinburgh Raaf (Южная Австралия, Австралия) (29 км)
Погода в Mount Crawford Aws (Южная Австралия, Австралия) (44 км)
Погода в Roseworthy Ag College (Южная Австралия, Австралия) (50 км)
Погода в Strathalbyn Racecourse (Южная Австралия, Австралия) (50 км)
Погода в Pallamana Aerodrome (Южная Австралия, Австралия) (65 км)

Пояснения к столбцам:

Ветер - указаны скорость ветра в м/с - средняя за 10 мин, порывы в срок и между сроками (в фигурных скобках) и направление, откуда дует ветер: С - северный, СВ - северо-восточный, В - восточный, ЮВ - юго-восточный, Ю - южный, ЮЗ - юго-западный, З - западный, СЗ - северо-западный.
Видимость - горизонтальная дальность видимости в метрах или километрах. При видимости от 1 до 10 км при отсутствии осадков обычно наблюдается дымка, при ухудшении видимости до 1 км и менее - туман. В сухую погоду видимость может ухудшаться дымом, пылью или мглою.
Явления - указаны атмосферные явления, наблюдавшиеся в срок или в последний час перед сроком; фигурными скобками обозначены явления, наблюдавшиеся между сроками (за 1-3 часа до срока); квадратными скобками обозначены град или гололедные отложения с указанием их диаметра в мм.
Облачность - указаны через наклонную черту общая и нижняя облачность в баллах и высота нижней границы облаков в метрах; квадратными скобками обозначены формы облаков: Ci - перистые, Cs - перисто-слоистые, Cc - перисто-кучевые, Ac - высококучевые, As - высокослоистые, Sc - слоисто-кучевые, Ns - слоисто-дождевые, Cu - кучевые, Cb - кучево-дождевые. Подробнее классификацию облаков см. в Атласе облаков (PDF).
T - Температура воздуха - температура, измеренная на высоте 2 м над землей.
Td - Температура точки росы - температура, при понижении до которой содержащийся в воздухе водяной пар достигнет насыщения.
f - Относительная влажность воздуха - влажноcть воздуха, измеренная на высоте 2 м над землей.
Te - Эффективная температура - температура, которую ощущает одетый по сезону человек в тени. Характеристика душности погоды. При расчете учитывается влияние влажности воздуха и скорости ветра на теплоощущения человека.
Tes - Эффективная температура на солнце - температура, которую ощущает человек, с поправкой на солнечный нагрев. Характеристика знойности погоды. Зависит от высоты солнца над горизонтом, облачности и скорости ветра. Ночью, в пасмурную погоду, а также при ветре 12 м/с и более поправка равна нулю.
P - Атмосферное давление - приведенное к уровню моря атмосферное давление.
Po - Атмосферное давление - измеренное на уровне метеостанции атмосферное давление.
Tmin - Минимальная температура - минимум температуры воздуха на высоте 2 м над землей.
Tmax - Максимальная температура - максимум температуры воздуха на высоте 2 м над землей.
R - Количество осадков - Количество выпавших осадков за период времени, мм. При наведении курсора мыши на число - период времени, за который выпало указанное количество осадков.
R24 - Количество осадков - Количество выпавших осадков за 24 часа, мм.
S - Снежный покров - Высота снежного покрова, см. При наведении курсора мыши на число - состояние снежного покрова и степень покрытия местности в баллах.